Regional Weather Roundup
Issued by NWS

Home | Current Version | Previous Version | Text Only | Print | Product List | Glossary On
Versions: 1 2 3 4 5 6 7 8 9 10 11 12 13 14 15 16 17 18 19 20 21 22 23 24 25 26 27 28 29 30 31 32 33 34 35 36 37 38 39 40 41 42 43 44 45 46 47 48 49 50
000
ASUS45 KBOI 031010
RWRID

IDAHO REGIONAL WEATHER ROUNDUP
NATIONAL WEATHER SERVICE BOISE ID
400 AM MDT MON AUG 03 2015

NOTE: "FAIR" INDICATES FEW OR NO CLOUDS BELOW 12000 FEET
WITH NO SIGNIFICANT WEATHER AND/OR OBSTRUCTIONS TO VISIBILITY

IDZ012-014-031100-
SOUTHWEST IDAHO


CITY           SKY/WX    TMP DP  RH WIND       PRES   REMARKS
BOISE          MOCLDY    79  50  36 N9        29.85R
CALDWELL       MOCLDY    79  46  31 W8        29.83R
MOUNTAIN HOME  CLOUDY    80  49  33 N12       29.84R
$$

IDZ016-017-031100-
SOUTHCENTRAL IDAHO


CITY           SKY/WX    TMP DP  RH WIND       PRES   REMARKS
BURLEY         CLOUDY    72  44  36 SW10      29.92R
JEROME         CLOUDY    70  47  43 S9        29.92R
TWIN FALLS     CLOUDY    80  40  23 SW16      29.91R
$$

IDZ019>023-031100-
SOUTHEAST IDAHO


CITY           SKY/WX    TMP DP  RH WIND       PRES   REMARKS
IDAHO FALLS    MOCLDY    53  46  77 N3        29.98R
POCATELLO      PTCLDY    78  46  32 S16G22    29.94R
REXBURG        CLOUDY    59  47  64 CALM      29.97S
$$

IDZ006-010-011-018-031-032-031100-
CENTRAL IDAHO MOUNTAINS


CITY           SKY/WX    TMP DP  RH WIND       PRES   REMARKS
MCCALL         CLOUDY    70  31  23 N6        29.94S
HAILEY         MOCLDY    63  39  42 NW10      30.00S
STANLEY          N/A     49  35  58 E3        30.10F
SALMON         PTCLDY    55  43  62 CALM      29.92S
CHALLIS        PTCLDY    62  38  40 CALM      29.98S
$$

IDZ002-004-006-007-026-031100-
NORTHERN IDAHO


CITY           SKY/WX    TMP DP  RH WIND       PRES   REMARKS
LEWISTON       PTCLDY    75  29  18 SE3       29.76S
LOWELL           N/A     62  50  64 NW3       29.84S
COEUR D`ALENE  PTCLDY    66  43  42 SE6       29.82S
MULLAN PASS    PTCLDY    72  19  13 SE3       30.08F
$$



USA.gov is the U.S. government's official web portal to all federal, state and local government web resources and services.